Weather Roundup
Issued by NWS Springfield, MO

Home | Current Version | Previous Version | Text Only | Print | Product List | Glossary On
Versions: 1 2 3 4 5 6 7 8 9 10 11 12 13 14 15 16 17 18 19 20 21 22 23 24 25 26 27 28 29 30 31 32 33 34 35 36 37 38 39 40 41 42 43 44 45 46 47 48 49 50
000
NZUS99 KSGF 182207
HRRSGF

HOURLY WEATHER
NATIONAL WEATHER SERVICE SPRINGFIELD MO
400 PM CST SAT FEB 18 2017

......SGF CWA......

CITY           SKY/WX    TMP DP  RH WIND       PRES   REMARKS
SPRINGFIELD    PTSUNNY   67  49  52 NW6       29.82R
JOPLIN         SUNNY     65  52  62 MISG      29.81F
WEST PLAINS    PTSUNNY   59  50  72 SE6       29.85S
ROLLA          SUNNY     63  48  58 S8        29.80S
OSAGE BEACH    SUNNY     70  46  42 W8        29.80S
BRANSON        MOSUNNY   66  46  48 NW5       29.83R

......SURROUNDING SGF CWA......

CITY           SKY/WX    TMP DP  RH WIND       PRES   REMARKS
CHANUTE        SUNNY     70  49  47 S10       29.79S
PARSONS        SUNNY     68  51  54 S8        29.80F
COFFEYVILLE    SUNNY     68  52  56 SE10      29.81S
EMPORIA        SUNNY     73  39  29 S10       29.75S
GROVE OK       SUNNY     66  54  63 CALM      29.82F
ROGERS AR      SUNNY     69  50  50 SW9       29.82S
SILOAM SPRINGS SUNNY     68  48  49 CALM      29.81F
HARRISON AR    SUNNY     67  47  48 N3        29.82R
NEAR YELLVILLE CLOUDY    70  45  40 NE5       29.80R

......KANSAS AND MISSOURI......

CITY           SKY/WX    TMP DP  RH WIND       PRES   REMARKS
KANSAS CTY INT PTSUNNY   70  40  33 VRB3      29.77S
DOWNTOWN KC    SUNNY     72  43  35 CALM      29.76S
COLUMBIA       SUNNY     71  45  39 W8        29.78R
SEDALIA        SUNNY     72  45  37 W7        29.78F
ST JOSEPH      SUNNY     68  39  34 W3        29.77F
ST LOUIS       CLOUDY    62  47  57 S8        29.80S
SPIRIT OF STL  PTSUNNY   62  47  57 SW12      29.78F
KIRKSVILLE     SUNNY     71  38  29 CALM      29.77S
WICHITA        MOSUNNY   73  42  32 S14       29.75S
TOPEKA         SUNNY     73  43  33 CALM      29.75F
OLATHE         SUNNY     70  45  40 SW5       29.77S

......TENNESSEE......

CITY           SKY/WX    TMP DP  RH WIND       PRES   REMARKS
MEMPHIS        MOSUNNY   65  53  65 SW8       29.86S
NASHVILLE      CLOUDY    57  43  59 SW3       29.90S

......ARKANSAS.......

CITY           SKY/WX    TMP DP  RH WIND       PRES   REMARKS
FAYETTEVILLE   MOSUNNY   68  49  50 S7        29.82R
FT SMITH       PTSUNNY   69  51  52 W7        29.81S
LITTLE ROCK    PTSUNNY   63  54  72 S8        29.86S

......OKLAHOMA.......

CITY           SKY/WX    TMP DP  RH WIND       PRES   REMARKS
TULSA          PTSUNNY   63  52  67 SE7       29.80F
PONCA CITY     SUNNY     69  49  48 SE12      29.77S
MCALESTER      CLOUDY    63  50  62 SE6       29.81F
OKLAHOMA CITY  MOSUNNY   68  50  52 SE8       29.78S

......IOWA............

CITY           SKY/WX    TMP DP  RH WIND       PRES   REMARKS
DES MOINES     MOSUNNY   66  31  27 CALM      29.79S
QUAD CITIES    SUNNY     69  30  23 W7        29.75R

......ILLINOIS........

CITY           SKY/WX    TMP DP  RH WIND       PRES   REMARKS
QUINCY         SUNNY     67  38  34 W3        29.76S
CHICAGO        MOSUNNY   69  33  26 W9        29.71R




USA.gov is the U.S. government's official web portal to all federal, state and local government web resources and services.